TimePDT,TemperatureF,Dew PointF,Humidity,Sea Level PressureIn,VisibilityMPH,Wind Direction,Wind SpeedMPH,Gust SpeedMPH,PrecipitationIn,Events,Conditions,WindDirDegrees,DateUTC
12:53 AM,52.0,42.1,69,29.81,10.0,WNW,6.9,-,N/A,,Partly Cloudy,290,2013-05-21 07:53:00
1:53 AM,50.0,41.0,71,29.79,10.0,WNW,5.8,-,N/A,,Clear,300,2013-05-21 08:53:00
2:53 AM,51.1,41.0,68,29.76,10.0,NW,6.9,-,N/A,,Clear,320,2013-05-21 09:53:00
3:53 AM,48.0,39.9,74,29.73,10.0,WNW,4.6,-,N/A,,Clear,300,2013-05-21 10:53:00
4:53 AM,52.0,42.1,69,29.72,10.0,West,3.5,-,N/A,,Overcast,270,2013-05-21 11:53:00
5:53 AM,52.0,44.1,74,29.68,10.0,NNW,3.5,-,N/A,,Overcast,330,2013-05-21 12:53:00
6:32 AM,51.8,44.6,76,29.67,10.0,NE,4.6,-,0.00,Rain-Thunderstorm,Light Thunderstorms and Rain,50,2013-05-21 13:32:00
6:53 AM,52.0,46.0,80,29.65,10.0,WNW,8.1,-,0.00,,Overcast,300,2013-05-21 13:53:00
7:53 AM,54.0,46.9,77,29.66,10.0,SE,3.5,-,0.01,,Overcast,140,2013-05-21 14:53:00
8:53 AM,59.0,48.0,67,29.64,10.0,Calm,Calm,-,N/A,,Partly Cloudy,0,2013-05-21 15:53:00
9:53 AM,64.0,48.0,56,29.62,10.0,NNE,5.8,-,N/A,,Partly Cloudy,30,2013-05-21 16:53:00
10:53 AM,64.9,46.9,52,29.60,10.0,Calm,Calm,-,N/A,,Partly Cloudy,0,2013-05-21 17:53:00
11:53 AM,62.1,50.0,65,29.60,10.0,SSW,3.5,-,0.01,Rain,Light Rain,210,2013-05-21 18:53:00
12:53 PM,57.9,53.1,84,29.62,10.0,South,8.1,-,0.03,Rain,Light Rain,190,2013-05-21 19:53:00
1:53 PM,57.9,48.9,72,29.63,10.0,South,15.0,-,0.01,Rain,Light Rain,190,2013-05-21 20:53:00
2:53 PM,54.0,48.0,80,29.65,10.0,South,17.3,26.5,0.01,Rain,Light Rain,190,2013-05-21 21:53:00
3:53 PM,51.1,46.9,86,29.72,8.0,South,16.1,25.3,0.06,Rain,Light Rain,180,2013-05-21 22:53:00
4:53 PM,50.0,46.0,86,29.70,10.0,ENE,6.9,-,0.05,Rain,Light Rain,60,2013-05-21 23:53:00
5:53 PM,50.0,45.0,83,29.73,10.0,WSW,3.5,-,0.00,,Overcast,240,2013-05-22 00:53:00
6:53 PM,51.1,46.0,83,29.74,10.0,Calm,Calm,-,N/A,,Overcast,0,2013-05-22 01:53:00
7:53 PM,50.0,46.9,89,29.73,10.0,Calm,Calm,-,0.00,Rain,Light Rain,0,2013-05-22 02:53:00
8:53 PM,48.9,46.9,93,29.74,10.0,NW,3.5,-,0.01,,Overcast,310,2013-05-22 03:53:00
9:29 PM,48.2,46.4,93,29.74,10.0,West,3.5,-,0.00,Rain,Light Rain,280,2013-05-22 04:29:00
9:53 PM,48.9,46.0,90,29.75,8.0,Calm,Calm,-,0.02,Rain,Light Rain,0,2013-05-22 04:53:00
10:53 PM,48.9,46.9,93,29.76,10.0,South,3.5,-,0.00,,Overcast,170,2013-05-22 05:53:00
11:53 PM,48.0,45.0,89,29.78,9.0,Calm,Calm,-,0.11,Rain,Light Rain,0,2013-05-22 06:53:00